Year,Month,Day,Hour,Minute,Value (Times are PST for temperature in C)
2010,10,13,00,00,8.30
2010,10,13,00,01,8.30
2010,10,13,00,02,8.30
2010,10,13,00,03,8.20
2010,10,13,00,04,8.20
2010,10,13,00,05,8.20
2010,10,13,00,06,8.20
2010,10,13,00,07,8.10
2010,10,13,00,08,8.10
2010,10,13,00,09,8.10
2010,10,13,00,10,8.10
2010,10,13,00,11,8.10
2010,10,13,00,12,8.10
2010,10,13,00,13,8.10
2010,10,13,00,14,8.10
2010,10,13,00,15,8.10
2010,10,13,00,16,8.10
2010,10,13,00,17,8.10
2010,10,13,00,18,8.10
2010,10,13,00,19,8.10
2010,10,13,00,20,8.00
2010,10,13,00,21,8.00
2010,10,13,00,22,8.00
2010,10,13,00,23,8.00
2010,10,13,00,24,7.90
2010,10,13,00,25,7.90
2010,10,13,00,26,7.90
2010,10,13,00,27,7.90
2010,10,13,00,28,7.90
2010,10,13,00,29,7.80
2010,10,13,00,30,7.80
2010,10,13,00,31,7.80
2010,10,13,00,32,7.80
2010,10,13,00,33,7.80
2010,10,13,00,34,7.70
2010,10,13,00,35,7.70
2010,10,13,00,36,7.70
2010,10,13,00,37,7.70
2010,10,13,00,38,7.70
2010,10,13,00,39,7.70
2010,10,13,00,40,7.70
2010,10,13,00,41,7.70
2010,10,13,00,42,7.60
2010,10,13,00,43,7.60
2010,10,13,00,44,7.60
2010,10,13,00,45,7.60
2010,10,13,00,46,7.60
2010,10,13,00,47,7.60
2010,10,13,00,48,7.60
2010,10,13,00,49,7.60
2010,10,13,00,50,7.60
2010,10,13,00,51,7.60
2010,10,13,00,52,7.60
2010,10,13,00,53,7.60
2010,10,13,00,54,7.70
2010,10,13,00,55,7.70
2010,10,13,00,56,7.70
2010,10,13,00,57,7.70
2010,10,13,00,58,7.70
2010,10,13,00,59,7.80
2010,10,13,01,00,7.80
2010,10,13,01,01,7.80
2010,10,13,01,02,7.80
2010,10,13,01,03,7.80
2010,10,13,01,04,7.80
2010,10,13,01,05,7.80
2010,10,13,01,06,7.80
2010,10,13,01,07,7.80
2010,10,13,01,08,7.80
2010,10,13,01,09,7.80
2010,10,13,01,10,7.80
2010,10,13,01,11,7.80
2010,10,13,01,12,7.80
2010,10,13,01,13,7.80
2010,10,13,01,14,7.80
2010,10,13,01,15,7.80
2010,10,13,01,16,7.80
2010,10,13,01,17,7.80
2010,10,13,01,18,7.80
2010,10,13,01,19,7.90
2010,10,13,01,20,7.90
2010,10,13,01,21,7.90
2010,10,13,01,22,7.90
2010,10,13,01,23,7.90
2010,10,13,01,24,7.90
2010,10,13,01,25,7.90
2010,10,13,01,26,7.90
2010,10,13,01,27,7.90
2010,10,13,01,28,7.80
2010,10,13,01,29,7.80
2010,10,13,01,30,7.80
2010,10,13,01,31,7.90
2010,10,13,01,32,7.90
2010,10,13,01,33,7.90
2010,10,13,01,34,7.90
2010,10,13,01,35,7.90
2010,10,13,01,36,7.90
2010,10,13,01,37,7.90
2010,10,13,01,38,7.90
2010,10,13,01,39,7.90
2010,10,13,01,40,8.00
2010,10,13,01,41,8.00
2010,10,13,01,42,8.00
2010,10,13,01,43,7.90
2010,10,13,01,44,7.90
2010,10,13,01,45,7.90
2010,10,13,01,46,7.90
2010,10,13,01,47,8.00
2010,10,13,01,48,8.00
2010,10,13,01,49,8.00
2010,10,13,01,50,8.00
2010,10,13,01,51,8.00
2010,10,13,01,52,7.90
2010,10,13,01,53,7.90
2010,10,13,01,54,7.90
2010,10,13,01,55,7.80
2010,10,13,01,56,7.80
2010,10,13,01,57,7.80
2010,10,13,01,58,7.70
2010,10,13,01,59,7.70
2010,10,13,02,00,7.70
2010,10,13,02,01,7.70
2010,10,13,02,02,7.70
2010,10,13,02,03,7.70
2010,10,13,02,04,7.70
2010,10,13,02,05,7.70
2010,10,13,02,06,7.70
2010,10,13,02,07,7.70
2010,10,13,02,08,7.60
2010,10,13,02,09,7.60
2010,10,13,02,10,7.60
2010,10,13,02,11,7.60
2010,10,13,02,12,7.60
2010,10,13,02,13,7.50
2010,10,13,02,14,7.50
2010,10,13,02,15,7.50
2010,10,13,02,16,7.50
2010,10,13,02,17,7.60
2010,10,13,02,18,7.50
2010,10,13,02,19,7.50
2010,10,13,02,20,7.50
2010,10,13,02,21,7.60
2010,10,13,02,22,7.60
2010,10,13,02,23,7.60
2010,10,13,02,24,7.60
2010,10,13,02,25,7.60
2010,10,13,02,26,7.60
2010,10,13,02,27,7.60
2010,10,13,02,28,7.60
2010,10,13,02,29,7.70
2010,10,13,02,30,7.70
2010,10,13,02,31,7.80
2010,10,13,02,32,7.80
2010,10,13,02,33,7.90
2010,10,13,02,34,7.90
2010,10,13,02,35,7.90
2010,10,13,02,36,8.00
2010,10,13,02,37,8.00
2010,10,13,02,38,8.00
2010,10,13,02,39,8.00
2010,10,13,02,40,8.00
2010,10,13,02,41,8.00
2010,10,13,02,42,8.00
2010,10,13,02,43,8.00
2010,10,13,02,44,8.00
2010,10,13,02,45,8.00
2010,10,13,02,46,8.00
2010,10,13,02,47,7.90
2010,10,13,02,48,7.90
2010,10,13,02,49,7.90
2010,10,13,02,50,7.90
2010,10,13,02,51,7.90
2010,10,13,02,52,7.90
2010,10,13,02,53,7.90
2010,10,13,02,54,7.90
2010,10,13,02,55,7.90
2010,10,13,02,56,7.90
2010,10,13,02,57,7.80
2010,10,13,02,58,7.80
2010,10,13,02,59,7.80
2010,10,13,03,00,7.80
2010,10,13,03,01,7.80
2010,10,13,03,02,7.80
2010,10,13,03,03,7.80
2010,10,13,03,04,7.80
2010,10,13,03,05,7.80
2010,10,13,03,06,7.80
2010,10,13,03,07,7.80
2010,10,13,03,08,7.80
2010,10,13,03,09,7.80
2010,10,13,03,10,7.80
2010,10,13,03,11,7.80
2010,10,13,03,12,7.80
2010,10,13,03,13,7.90
2010,10,13,03,14,7.90
2010,10,13,03,15,7.90
2010,10,13,03,16,7.90
2010,10,13,03,17,7.90
2010,10,13,03,18,7.90
2010,10,13,03,19,7.90
2010,10,13,03,20,7.90
2010,10,13,03,21,7.90
2010,10,13,03,22,7.90
2010,10,13,03,23,7.90
2010,10,13,03,24,7.90
2010,10,13,03,25,7.90
2010,10,13,03,26,7.90
2010,10,13,03,27,7.90
2010,10,13,03,28,7.90
2010,10,13,03,29,7.90
2010,10,13,03,30,7.90
2010,10,13,03,31,7.90
2010,10,13,03,32,7.90
2010,10,13,03,33,7.90
2010,10,13,03,34,7.90
2010,10,13,03,35,8.00
2010,10,13,03,36,8.00
2010,10,13,03,37,8.00
2010,10,13,03,38,8.00
2010,10,13,03,39,8.00
2010,10,13,03,40,8.00
2010,10,13,03,41,8.00
2010,10,13,03,42,8.10
2010,10,13,03,43,8.10
2010,10,13,03,44,8.10
2010,10,13,03,45,8.10
2010,10,13,03,46,8.20
2010,10,13,03,47,8.20
2010,10,13,03,48,8.20
2010,10,13,03,49,8.20
2010,10,13,03,50,8.20
2010,10,13,03,51,8.30
2010,10,13,03,52,8.30
2010,10,13,03,53,8.30
2010,10,13,03,54,8.30
2010,10,13,03,55,8.20
2010,10,13,03,56,8.20
2010,10,13,03,57,8.20
2010,10,13,03,58,8.20
2010,10,13,03,59,8.20
2010,10,13,04,00,8.20
2010,10,13,04,01,8.10
2010,10,13,04,02,8.10
2010,10,13,04,03,8.10
2010,10,13,04,04,8.10
2010,10,13,04,05,8.10
2010,10,13,04,06,8.10
2010,10,13,04,07,8.10
2010,10,13,04,08,8.00
2010,10,13,04,09,8.00
2010,10,13,04,10,8.00
2010,10,13,04,11,8.00
2010,10,13,04,12,8.00
2010,10,13,04,13,8.00
2010,10,13,04,14,8.00
2010,10,13,04,15,7.90
2010,10,13,04,16,7.90
2010,10,13,04,17,7.90
2010,10,13,04,18,7.90
2010,10,13,04,19,7.90
2010,10,13,04,20,7.90
2010,10,13,04,21,7.90
2010,10,13,04,22,7.90
2010,10,13,04,23,7.90
2010,10,13,04,24,7.90
2010,10,13,04,25,7.90
2010,10,13,04,26,7.90
2010,10,13,04,27,8.00
2010,10,13,04,28,8.00
2010,10,13,04,29,8.00
2010,10,13,04,30,8.00
2010,10,13,04,31,8.00
2010,10,13,04,32,8.00
2010,10,13,04,33,8.00
2010,10,13,04,34,8.00
2010,10,13,04,35,8.00
2010,10,13,04,36,7.90
2010,10,13,04,37,7.90
2010,10,13,04,38,7.90
2010,10,13,04,39,7.90
2010,10,13,04,40,7.90
2010,10,13,04,41,7.80
2010,10,13,04,42,7.80
2010,10,13,04,43,7.80
2010,10,13,04,44,7.80
2010,10,13,04,45,7.80
2010,10,13,04,46,7.80
2010,10,13,04,47,7.80
2010,10,13,04,48,7.90
2010,10,13,04,49,7.90
2010,10,13,04,50,7.90
2010,10,13,04,51,7.90
2010,10,13,04,52,7.90
2010,10,13,04,53,7.90
2010,10,13,04,54,7.90
2010,10,13,04,55,7.90
2010,10,13,04,56,7.80
2010,10,13,04,57,7.80
2010,10,13,04,58,7.80
2010,10,13,04,59,7.70
2010,10,13,05,00,7.70
2010,10,13,05,01,7.70
2010,10,13,05,02,7.70
2010,10,13,05,03,7.70
2010,10,13,05,04,7.70
2010,10,13,05,05,7.60
2010,10,13,05,06,7.70
2010,10,13,05,07,7.70
2010,10,13,05,08,7.70
2010,10,13,05,09,7.80
2010,10,13,05,10,7.80
2010,10,13,05,11,7.90
2010,10,13,05,12,7.90
2010,10,13,05,13,8.00
2010,10,13,05,14,8.00
2010,10,13,05,15,7.90
2010,10,13,05,16,7.90
2010,10,13,05,17,7.90
2010,10,13,05,18,7.90
2010,10,13,05,19,7.90
2010,10,13,05,20,7.90
2010,10,13,05,21,7.90
2010,10,13,05,22,7.90
2010,10,13,05,23,7.90
2010,10,13,05,24,7.90
2010,10,13,05,25,7.90
2010,10,13,05,26,7.90
2010,10,13,05,27,7.90
2010,10,13,05,28,7.90
2010,10,13,05,29,7.90
2010,10,13,05,30,7.90
2010,10,13,05,31,7.90
2010,10,13,05,32,7.90
2010,10,13,05,33,7.90
2010,10,13,05,34,7.90
2010,10,13,05,35,7.90
2010,10,13,05,36,7.90
2010,10,13,05,37,7.90
2010,10,13,05,38,8.00
2010,10,13,05,39,8.00
2010,10,13,05,40,8.00
2010,10,13,05,41,8.10
2010,10,13,05,42,8.10
2010,10,13,05,43,8.10
2010,10,13,05,44,8.10
2010,10,13,05,45,8.20
2010,10,13,05,46,8.20
2010,10,13,05,47,8.20
2010,10,13,05,48,8.20
2010,10,13,05,49,8.20
2010,10,13,05,50,8.20
2010,10,13,05,51,8.20
2010,10,13,05,52,8.20
2010,10,13,05,53,8.30
2010,10,13,05,54,8.30
2010,10,13,05,55,8.30
2010,10,13,05,56,8.40
2010,10,13,05,57,8.40
2010,10,13,05,58,8.40
2010,10,13,05,59,8.40
2010,10,13,06,00,8.40
2010,10,13,06,01,8.30
2010,10,13,06,02,8.30
2010,10,13,06,03,8.30
2010,10,13,06,04,8.30
2010,10,13,06,05,8.30
2010,10,13,06,06,8.30
2010,10,13,06,07,8.30
2010,10,13,06,08,8.30
2010,10,13,06,09,8.30
2010,10,13,06,10,8.30
2010,10,13,06,11,8.30
2010,10,13,06,12,8.20
2010,10,13,06,13,8.20
2010,10,13,06,14,8.20
2010,10,13,06,15,8.10
2010,10,13,06,16,8.10
2010,10,13,06,17,8.10
2010,10,13,06,18,8.00
2010,10,13,06,19,8.00
2010,10,13,06,20,8.00
2010,10,13,06,21,8.00
2010,10,13,06,22,8.00
2010,10,13,06,23,8.00
2010,10,13,06,24,8.00
2010,10,13,06,25,8.00
2010,10,13,06,26,8.00
2010,10,13,06,27,8.10
2010,10,13,06,28,8.10
2010,10,13,06,29,8.10
2010,10,13,06,30,8.10
2010,10,13,06,31,8.10
2010,10,13,06,32,8.10
2010,10,13,06,33,8.20
2010,10,13,06,34,8.20
2010,10,13,06,35,8.20
2010,10,13,06,36,8.30
2010,10,13,06,37,8.30
2010,10,13,06,38,8.30
2010,10,13,06,39,8.30
2010,10,13,06,40,8.30
2010,10,13,06,41,8.30
2010,10,13,06,42,8.30
2010,10,13,06,43,8.30
2010,10,13,06,44,8.40
2010,10,13,06,45,8.40
2010,10,13,06,46,8.40
2010,10,13,06,47,8.40
2010,10,13,06,48,8.40
2010,10,13,06,49,8.40
2010,10,13,06,50,8.40
2010,10,13,06,51,8.30
2010,10,13,06,52,8.30
2010,10,13,06,53,8.30
2010,10,13,06,54,8.30
2010,10,13,06,55,8.30
2010,10,13,06,56,8.30
2010,10,13,06,57,8.30
2010,10,13,06,58,8.30
2010,10,13,06,59,8.30
2010,10,13,07,00,8.30
2010,10,13,07,01,8.20
2010,10,13,07,02,8.20
2010,10,13,07,03,8.20
2010,10,13,07,04,8.20
2010,10,13,07,05,8.20
2010,10,13,07,06,8.20
2010,10,13,07,07,8.20
2010,10,13,07,08,8.20
2010,10,13,07,09,8.20
2010,10,13,07,10,8.20
2010,10,13,07,11,8.20
2010,10,13,07,12,8.10
2010,10,13,07,13,8.10
2010,10,13,07,14,8.10
2010,10,13,07,15,8.10
2010,10,13,07,16,8.10
2010,10,13,07,17,8.10
2010,10,13,07,18,8.20
2010,10,13,07,19,8.20
2010,10,13,07,20,8.20
2010,10,13,07,21,8.20
2010,10,13,07,22,8.20
2010,10,13,07,23,8.20
2010,10,13,07,24,8.20
2010,10,13,07,25,8.10
2010,10,13,07,26,8.10
2010,10,13,07,27,8.10
2010,10,13,07,28,8.10
2010,10,13,07,29,8.10
2010,10,13,07,30,8.10
2010,10,13,07,31,8.10
2010,10,13,07,32,8.10
2010,10,13,07,33,8.10
2010,10,13,07,34,8.10
2010,10,13,07,35,8.10
2010,10,13,07,36,8.10
2010,10,13,07,37,8.10
2010,10,13,07,38,8.10
2010,10,13,07,39,8.20
2010,10,13,07,40,8.20
2010,10,13,07,41,8.20
2010,10,13,07,42,8.20
2010,10,13,07,43,8.20
2010,10,13,07,44,8.20
2010,10,13,07,45,8.20
2010,10,13,07,46,8.20
2010,10,13,07,47,8.20
2010,10,13,07,48,8.20
2010,10,13,07,49,8.20
2010,10,13,07,50,8.20
2010,10,13,07,51,8.30
2010,10,13,07,52,8.30
2010,10,13,07,53,8.30
2010,10,13,07,54,8.30
2010,10,13,07,55,8.30
2010,10,13,07,56,8.30
2010,10,13,07,57,8.30
2010,10,13,07,58,8.30
2010,10,13,07,59,8.30
2010,10,13,08,00,8.30
2010,10,13,08,01,8.30
2010,10,13,08,02,8.30
2010,10,13,08,03,8.30
2010,10,13,08,04,8.30
2010,10,13,08,05,8.40
2010,10,13,08,06,8.40
2010,10,13,08,07,8.40
2010,10,13,08,08,8.40
2010,10,13,08,09,8.40
2010,10,13,08,10,8.40
2010,10,13,08,11,8.40
2010,10,13,08,12,8.40
2010,10,13,08,13,8.40
2010,10,13,08,14,8.40
2010,10,13,08,15,8.40
2010,10,13,08,16,8.40
2010,10,13,08,17,8.40
2010,10,13,08,18,8.40
2010,10,13,08,19,8.50
2010,10,13,08,20,8.50
2010,10,13,08,21,8.60
2010,10,13,08,22,8.60
2010,10,13,08,23,8.60
2010,10,13,08,24,8.60
2010,10,13,08,25,8.60
2010,10,13,08,26,8.60
2010,10,13,08,27,8.70
2010,10,13,08,28,8.70
2010,10,13,08,29,8.70
2010,10,13,08,30,8.70
2010,10,13,08,31,8.70
2010,10,13,08,32,8.70
2010,10,13,08,33,8.70
2010,10,13,08,34,8.70
2010,10,13,08,35,8.70
2010,10,13,08,36,8.70
2010,10,13,08,37,8.70
2010,10,13,08,38,8.70
2010,10,13,08,39,8.70
2010,10,13,08,40,8.70
2010,10,13,08,41,8.70
2010,10,13,08,42,8.70
2010,10,13,08,43,8.70
2010,10,13,08,44,8.70
2010,10,13,08,45,8.70
2010,10,13,08,46,8.70
2010,10,13,08,47,8.70
2010,10,13,08,48,8.70
2010,10,13,08,49,8.80
2010,10,13,08,50,8.80
2010,10,13,08,51,8.80
2010,10,13,08,52,8.80
2010,10,13,08,53,8.80
2010,10,13,08,54,8.90
2010,10,13,08,55,8.90
2010,10,13,08,56,8.90
2010,10,13,08,57,9.00
2010,10,13,08,58,9.00
2010,10,13,08,59,9.10
2010,10,13,09,00,9.10
2010,10,13,09,01,9.10
2010,10,13,09,02,9.10
2010,10,13,09,03,9.20
2010,10,13,09,04,9.20
2010,10,13,09,05,9.20
2010,10,13,09,06,9.20
2010,10,13,09,07,9.30
2010,10,13,09,08,9.30
2010,10,13,09,09,9.40
2010,10,13,09,10,9.40
2010,10,13,09,11,9.50
2010,10,13,09,12,9.60
2010,10,13,09,13,9.60
2010,10,13,09,14,9.70
2010,10,13,09,15,9.70
2010,10,13,09,16,9.80
2010,10,13,09,17,9.80
2010,10,13,09,18,9.90
2010,10,13,09,19,9.90
2010,10,13,09,20,10.00
2010,10,13,09,21,10.10
2010,10,13,09,22,10.10
2010,10,13,09,23,10.20
2010,10,13,09,24,10.20
2010,10,13,09,25,10.30
2010,10,13,09,26,10.40
2010,10,13,09,27,10.40
2010,10,13,09,28,10.50
2010,10,13,09,29,10.60
2010,10,13,09,30,10.60
2010,10,13,09,31,10.70
2010,10,13,09,32,10.70
2010,10,13,09,33,10.80
2010,10,13,09,34,10.80
2010,10,13,09,35,10.80
2010,10,13,09,36,10.90
2010,10,13,09,37,10.90
2010,10,13,09,38,11.00
2010,10,13,09,39,11.00
2010,10,13,09,40,11.10
2010,10,13,09,41,11.10
2010,10,13,09,42,11.20
2010,10,13,09,43,11.20
2010,10,13,09,44,11.30
2010,10,13,09,45,11.30
2010,10,13,09,46,11.40
2010,10,13,09,47,11.50
2010,10,13,09,48,11.60
2010,10,13,09,49,11.70
2010,10,13,09,50,11.80
2010,10,13,09,51,11.80
2010,10,13,09,52,11.90
2010,10,13,09,53,12.00
2010,10,13,09,54,12.00
2010,10,13,09,55,12.10
2010,10,13,09,56,12.10
2010,10,13,09,57,12.20
2010,10,13,09,58,12.20
2010,10,13,09,59,12.20
2010,10,13,10,00,12.20
2010,10,13,10,01,12.30
2010,10,13,10,02,12.30
2010,10,13,10,03,12.30
2010,10,13,10,04,12.30
2010,10,13,10,05,12.30
2010,10,13,10,06,12.30
2010,10,13,10,07,12.30
2010,10,13,10,08,12.30
2010,10,13,10,09,12.30
2010,10,13,10,10,12.30
2010,10,13,10,11,12.30
2010,10,13,10,12,12.40
2010,10,13,10,13,12.40
2010,10,13,10,14,12.40
2010,10,13,10,15,12.50
2010,10,13,10,16,12.50
2010,10,13,10,17,12.60
2010,10,13,10,18,12.60
2010,10,13,10,19,12.70
2010,10,13,10,20,12.70
2010,10,13,10,21,12.70
2010,10,13,10,22,12.70
2010,10,13,10,23,12.70
2010,10,13,10,24,12.70
2010,10,13,10,25,12.70
2010,10,13,10,26,12.70
2010,10,13,10,27,12.70
2010,10,13,10,28,12.80
2010,10,13,10,29,12.80
2010,10,13,10,30,12.80
2010,10,13,10,31,12.90
2010,10,13,10,32,12.90
2010,10,13,10,33,12.90
2010,10,13,10,34,13.00
2010,10,13,10,35,13.10
2010,10,13,10,36,13.10
2010,10,13,10,37,13.10
2010,10,13,10,38,13.10
2010,10,13,10,39,13.20
2010,10,13,10,40,13.20
2010,10,13,10,41,13.20
2010,10,13,10,42,13.20
2010,10,13,10,43,13.30
2010,10,13,10,44,13.30
2010,10,13,10,45,13.30
2010,10,13,10,46,13.40
2010,10,13,10,47,13.40
2010,10,13,10,48,13.50
2010,10,13,10,49,13.50
2010,10,13,10,50,13.60
2010,10,13,10,51,13.60
2010,10,13,10,52,13.70
2010,10,13,10,53,13.80
2010,10,13,10,54,13.80
2010,10,13,10,55,13.90
2010,10,13,10,56,13.90
2010,10,13,10,57,13.90
2010,10,13,10,58,13.90
2010,10,13,10,59,13.90
2010,10,13,11,00,13.90
2010,10,13,11,01,14.00
2010,10,13,11,02,14.00
2010,10,13,11,03,14.00
2010,10,13,11,04,14.10
2010,10,13,11,05,14.10
2010,10,13,11,06,14.10
2010,10,13,11,07,14.10
2010,10,13,11,08,14.10
2010,10,13,11,09,14.10
2010,10,13,11,10,14.10
2010,10,13,11,11,14.10
2010,10,13,11,12,14.20
2010,10,13,11,13,14.20
2010,10,13,11,14,14.30
2010,10,13,11,15,14.30
2010,10,13,11,16,14.30
2010,10,13,11,17,14.30
2010,10,13,11,18,14.40
2010,10,13,11,19,14.40
2010,10,13,11,20,14.40
2010,10,13,11,21,14.40
2010,10,13,11,22,14.40
2010,10,13,11,23,14.40
2010,10,13,11,24,14.30
2010,10,13,11,25,14.40
2010,10,13,11,26,14.40
2010,10,13,11,27,14.40
2010,10,13,11,28,14.40
2010,10,13,11,29,14.40
2010,10,13,11,30,14.40
2010,10,13,11,31,14.50
2010,10,13,11,32,14.50
2010,10,13,11,33,14.50
2010,10,13,11,34,14.60
2010,10,13,11,35,14.60
2010,10,13,11,36,14.60
2010,10,13,11,37,14.60
2010,10,13,11,38,14.50
2010,10,13,11,39,14.60
2010,10,13,11,40,14.60
2010,10,13,11,41,14.60
2010,10,13,11,42,14.60
2010,10,13,11,43,14.60
2010,10,13,11,44,14.70
2010,10,13,11,45,14.70
2010,10,13,11,46,14.70
2010,10,13,11,47,14.70
2010,10,13,11,48,14.80
2010,10,13,11,49,14.80
2010,10,13,11,50,15.00
2010,10,13,11,51,15.00
2010,10,13,11,52,15.00
2010,10,13,11,53,15.00
2010,10,13,11,54,15.00
2010,10,13,11,55,15.00
2010,10,13,11,56,15.00
2010,10,13,11,57,15.00
2010,10,13,11,58,15.00
2010,10,13,11,59,15.00
2010,10,13,12,00,15.00
2010,10,13,12,01,15.00
2010,10,13,12,02,15.00
2010,10,13,12,03,15.00
2010,10,13,12,04,15.00
2010,10,13,12,05,15.00
2010,10,13,12,06,15.00
2010,10,13,12,07,15.00
2010,10,13,12,08,15.00
2010,10,13,12,09,15.00
2010,10,13,12,10,15.00
2010,10,13,12,11,15.00
2010,10,13,12,12,15.00
2010,10,13,12,13,15.00
2010,10,13,12,14,15.00
2010,10,13,12,15,15.10
2010,10,13,12,16,15.10
2010,10,13,12,17,15.20
2010,10,13,12,18,15.20
2010,10,13,12,19,15.20
2010,10,13,12,20,15.20
2010,10,13,12,21,15.20
2010,10,13,12,22,15.20
2010,10,13,12,23,15.30
2010,10,13,12,24,15.30
2010,10,13,12,25,15.30
2010,10,13,12,26,15.30
2010,10,13,12,27,15.30
2010,10,13,12,28,15.30
2010,10,13,12,29,15.30
2010,10,13,12,30,15.30
2010,10,13,12,31,15.40
2010,10,13,12,32,15.40
2010,10,13,12,33,15.40
2010,10,13,12,34,15.40
2010,10,13,12,35,15.50
2010,10,13,12,36,15.50
2010,10,13,12,37,15.50
2010,10,13,12,38,15.40
2010,10,13,12,39,15.40
2010,10,13,12,40,15.40
2010,10,13,12,41,15.40
2010,10,13,12,42,15.40
2010,10,13,12,43,15.40
2010,10,13,12,44,15.50
2010,10,13,12,45,15.50
2010,10,13,12,46,15.60
2010,10,13,12,47,15.60
2010,10,13,12,48,15.50
2010,10,13,12,49,15.50
2010,10,13,12,50,15.50
2010,10,13,12,51,15.50
2010,10,13,12,52,15.60
2010,10,13,12,53,15.50
2010,10,13,12,54,15.50
2010,10,13,12,55,15.60
2010,10,13,12,56,15.60
2010,10,13,12,57,15.60
2010,10,13,12,58,15.60
2010,10,13,12,59,15.70
2010,10,13,13,00,15.70
2010,10,13,13,01,15.70
2010,10,13,13,02,15.80
2010,10,13,13,03,15.80
2010,10,13,13,04,15.90
2010,10,13,13,05,16.00
2010,10,13,13,06,16.00
2010,10,13,13,07,16.00
2010,10,13,13,08,16.10
2010,10,13,13,09,16.10
2010,10,13,13,10,16.10
2010,10,13,13,11,16.10
2010,10,13,13,12,16.10
2010,10,13,13,13,16.10
2010,10,13,13,14,16.10
2010,10,13,13,15,16.10
2010,10,13,13,16,16.10
2010,10,13,13,17,16.10
2010,10,13,13,18,16.10
2010,10,13,13,19,16.10
2010,10,13,13,20,16.10
2010,10,13,13,21,16.10
2010,10,13,13,22,16.10
2010,10,13,13,23,16.00
2010,10,13,13,24,16.00
2010,10,13,13,25,16.10
2010,10,13,13,26,16.10
2010,10,13,13,27,16.00
2010,10,13,13,28,16.00
2010,10,13,13,29,16.00
2010,10,13,13,30,16.00
2010,10,13,13,31,16.10
2010,10,13,13,32,16.10
2010,10,13,13,33,16.20
2010,10,13,13,34,16.20
2010,10,13,13,35,16.30
2010,10,13,13,36,16.30
2010,10,13,13,37,16.30
2010,10,13,13,38,16.30
2010,10,13,13,39,16.30
2010,10,13,13,40,16.30
2010,10,13,13,41,16.40
2010,10,13,13,42,16.40
2010,10,13,13,43,16.40
2010,10,13,13,44,16.50
2010,10,13,13,45,16.60
2010,10,13,13,46,16.60
2010,10,13,13,47,16.60
2010,10,13,13,48,16.60
2010,10,13,13,49,16.60
2010,10,13,13,50,16.70
2010,10,13,13,51,16.70
2010,10,13,13,52,16.70
2010,10,13,13,53,16.70
2010,10,13,13,54,16.80
2010,10,13,13,55,16.80
2010,10,13,13,56,16.80
2010,10,13,13,57,16.80
2010,10,13,13,58,16.80
2010,10,13,13,59,16.80
2010,10,13,14,00,16.80
2010,10,13,14,01,16.80
2010,10,13,14,02,16.70
2010,10,13,14,03,16.70
2010,10,13,14,04,16.70
2010,10,13,14,05,16.70
2010,10,13,14,06,16.80
2010,10,13,14,07,16.80
2010,10,13,14,08,16.90
2010,10,13,14,09,17.00
2010,10,13,14,10,17.10
2010,10,13,14,11,17.10
2010,10,13,14,12,17.20
2010,10,13,14,13,17.20
2010,10,13,14,14,17.30
2010,10,13,14,15,17.30
2010,10,13,14,16,17.40
2010,10,13,14,17,17.40
2010,10,13,14,18,17.40
2010,10,13,14,19,17.50
2010,10,13,14,20,17.50
2010,10,13,14,21,17.60
2010,10,13,14,22,17.60
2010,10,13,14,23,17.60
2010,10,13,14,24,17.60
2010,10,13,14,25,17.60
2010,10,13,14,26,17.50
2010,10,13,14,27,17.50
2010,10,13,14,28,17.40
2010,10,13,14,29,17.40
2010,10,13,14,30,17.30
2010,10,13,14,31,17.30
2010,10,13,14,32,17.30
2010,10,13,14,33,17.30
2010,10,13,14,34,17.40
2010,10,13,14,35,17.40
2010,10,13,14,36,17.40
2010,10,13,14,37,17.40
2010,10,13,14,38,17.40
2010,10,13,14,39,17.40
2010,10,13,14,40,17.40
2010,10,13,14,41,17.40
2010,10,13,14,42,17.20
2010,10,13,14,43,17.20
2010,10,13,14,44,17.20
2010,10,13,14,45,17.20
2010,10,13,14,46,17.30
2010,10,13,14,47,17.30
2010,10,13,14,48,17.40
2010,10,13,14,49,17.40
2010,10,13,14,50,17.40
2010,10,13,14,51,17.40
2010,10,13,14,52,17.30
2010,10,13,14,53,17.30
2010,10,13,14,54,17.30
2010,10,13,14,55,17.40
2010,10,13,14,56,17.40
2010,10,13,14,57,17.40
2010,10,13,14,58,17.40
2010,10,13,14,59,17.40
2010,10,13,15,00,17.40
2010,10,13,15,01,17.40
2010,10,13,15,02,17.40
2010,10,13,15,03,17.40
2010,10,13,15,04,17.40
2010,10,13,15,05,17.40
2010,10,13,15,06,17.30
2010,10,13,15,07,17.20
2010,10,13,15,08,17.00
2010,10,13,15,09,16.90
2010,10,13,15,10,16.70
2010,10,13,15,11,16.60
2010,10,13,15,12,16.40
2010,10,13,15,13,16.30
2010,10,13,15,14,16.20
2010,10,13,15,15,16.10
2010,10,13,15,16,16.00
2010,10,13,15,17,16.00
2010,10,13,15,18,16.00
2010,10,13,15,19,16.00
2010,10,13,15,20,16.00
2010,10,13,15,21,16.00
2010,10,13,15,22,16.10
2010,10,13,15,23,16.10
2010,10,13,15,24,16.10
2010,10,13,15,25,16.10
2010,10,13,15,26,16.10
2010,10,13,15,27,16.10
2010,10,13,15,28,16.10
2010,10,13,15,29,16.10
2010,10,13,15,30,16.10
2010,10,13,15,31,16.20
2010,10,13,15,32,16.20
2010,10,13,15,33,16.20
2010,10,13,15,34,16.20
2010,10,13,15,35,16.20
2010,10,13,15,36,16.10
2010,10,13,15,37,16.10
2010,10,13,15,38,16.10
2010,10,13,15,39,16.00
2010,10,13,15,40,15.90
2010,10,13,15,41,15.90
2010,10,13,15,42,15.80
2010,10,13,15,43,15.80
2010,10,13,15,44,15.80
2010,10,13,15,45,15.80
2010,10,13,15,46,15.80
2010,10,13,15,47,15.80
2010,10,13,15,48,15.70
2010,10,13,15,49,15.70
2010,10,13,15,50,15.70
2010,10,13,15,51,15.60
2010,10,13,15,52,15.50
2010,10,13,15,53,15.50
2010,10,13,15,54,15.50
2010,10,13,15,55,15.50
2010,10,13,15,56,15.50
2010,10,13,15,57,15.60
2010,10,13,15,58,15.60
2010,10,13,15,59,15.60
2010,10,13,16,00,15.60
2010,10,13,16,01,15.50
2010,10,13,16,02,15.50
2010,10,13,16,03,15.50
2010,10,13,16,04,15.50
2010,10,13,16,05,15.50
2010,10,13,16,06,15.60
2010,10,13,16,07,15.60
2010,10,13,16,08,15.70
2010,10,13,16,09,15.60
2010,10,13,16,10,15.60
2010,10,13,16,11,15.60
2010,10,13,16,12,15.60
2010,10,13,16,13,15.60
2010,10,13,16,14,15.50
2010,10,13,16,15,15.50
2010,10,13,16,16,15.50
2010,10,13,16,17,15.50
2010,10,13,16,18,15.60
2010,10,13,16,19,15.60
2010,10,13,16,20,15.60
2010,10,13,16,21,15.70
2010,10,13,16,22,15.70
2010,10,13,16,23,15.70
2010,10,13,16,24,15.60
2010,10,13,16,25,15.60
2010,10,13,16,26,15.60
2010,10,13,16,27,15.50
2010,10,13,16,28,15.40
2010,10,13,16,29,15.30
2010,10,13,16,30,15.30
2010,10,13,16,31,15.20
2010,10,13,16,32,15.10
2010,10,13,16,33,15.00
2010,10,13,16,34,15.00
2010,10,13,16,35,15.00
2010,10,13,16,36,15.00
2010,10,13,16,37,15.00
2010,10,13,16,38,15.00
2010,10,13,16,39,15.00
2010,10,13,16,40,15.00
2010,10,13,16,41,15.00
2010,10,13,16,42,15.00
2010,10,13,16,43,15.00
2010,10,13,16,44,15.00
2010,10,13,16,45,15.00
2010,10,13,16,46,15.00
2010,10,13,16,47,15.00
2010,10,13,16,48,15.00
2010,10,13,16,49,15.00
2010,10,13,16,50,15.00
2010,10,13,16,51,15.00
2010,10,13,16,52,15.00
2010,10,13,16,53,15.00
2010,10,13,16,54,15.00
2010,10,13,16,55,15.00
2010,10,13,16,56,15.00
2010,10,13,16,57,15.00
2010,10,13,16,58,15.00
2010,10,13,16,59,15.00
2010,10,13,17,00,14.90
2010,10,13,17,01,14.90
2010,10,13,17,02,14.80
2010,10,13,17,03,14.80
2010,10,13,17,04,14.80
2010,10,13,17,05,14.80
2010,10,13,17,06,14.80
2010,10,13,17,07,14.80
2010,10,13,17,08,14.80
2010,10,13,17,09,14.80
2010,10,13,17,10,14.80
2010,10,13,17,11,14.80
2010,10,13,17,12,14.70
2010,10,13,17,13,14.70
2010,10,13,17,14,14.70
2010,10,13,17,15,14.70
2010,10,13,17,16,14.70
2010,10,13,17,17,14.70
2010,10,13,17,18,14.70
2010,10,13,17,19,14.60
2010,10,13,17,20,14.60
2010,10,13,17,21,14.60
2010,10,13,17,22,14.60
2010,10,13,17,23,14.60
2010,10,13,17,24,14.60
2010,10,13,17,25,14.60
2010,10,13,17,26,14.60
2010,10,13,17,27,14.50
2010,10,13,17,28,14.50
2010,10,13,17,29,14.40
2010,10,13,17,30,14.40
2010,10,13,17,31,14.40
2010,10,13,17,32,14.30
2010,10,13,17,33,14.30
2010,10,13,17,34,14.30
2010,10,13,17,35,14.20
2010,10,13,17,36,14.20
2010,10,13,17,37,14.20
2010,10,13,17,38,14.10
2010,10,13,17,39,14.10
2010,10,13,17,40,14.00
2010,10,13,17,41,14.00
2010,10,13,17,42,13.90
2010,10,13,17,43,13.80